Wetterdaten: Montag, 07.12.2015
Datum Zeit Auen-Temp. Temp gefhlt Luftfeuchte Luftdruck Regen Wind Richtung Richtung Taupunkt Windben
07.12.2015 00:01 0,5 C 0,1 C 85 % 1033,5 hPa 0,0 mm 0,0 km/h (0 Bft) SO 135 -1,7 C 0,0 km/h (0 Bft)
07.12.2015 00:06 0,4 C 0,0 C 85 % 1033,5 hPa 0,0 mm 0,0 km/h (0 Bft) SO 135 -1,8 C 0,0 km/h (0 Bft)
07.12.2015 00:11 -0,1 C -0,4 C 85 % 1033,5 hPa 0,0 mm 0,0 km/h (0 Bft) SO 135 -2,3 C 0,0 km/h (0 Bft)
07.12.2015 00:16 -0,1 C -0,4 C 85 % 1033,5 hPa 0,0 mm 0,0 km/h (0 Bft) S 180 -2,3 C 0,0 km/h (0 Bft)
07.12.2015 00:21 0,1 C -0,3 C 85 % 1033,5 hPa 0,0 mm 0,0 km/h (0 Bft) S 180 -2,1 C 0,0 km/h (0 Bft)
07.12.2015 00:26 0,0 C -0,3 C 85 % 1033,5 hPa 0,0 mm 0,0 km/h (0 Bft) NW 315 -2,2 C 0,0 km/h (0 Bft)
07.12.2015 00:31 -0,2 C -0,5 C 85 % 1033,5 hPa 0,0 mm 0,0 km/h (0 Bft) NW 315 -2,4 C 0,0 km/h (0 Bft)
07.12.2015 00:36 -0,1 C -0,5 C 85 % 1033,5 hPa 0,0 mm 0,0 km/h (0 Bft) NW 315 -2,3 C 0,0 km/h (0 Bft)
07.12.2015 00:41 -0,1 C -0,5 C 85 % 1033,5 hPa 0,0 mm 0,0 km/h (0 Bft) NW 315 -2,3 C 0,0 km/h (0 Bft)
07.12.2015 00:46 -0,1 C -0,4 C 86 % 1033,5 hPa 0,0 mm 0,0 km/h (0 Bft) NW 315 -2,2 C 0,0 km/h (0 Bft)
07.12.2015 00:51 -0,4 C -0,7 C 86 % 1033,3 hPa 0,0 mm 0,0 km/h (0 Bft) NW 315 -2,4 C 0,0 km/h (0 Bft)
07.12.2015 00:56 -0,5 C -0,8 C 86 % 1033,3 hPa 0,0 mm 0,0 km/h (0 Bft) NW 315 -2,5 C 0,0 km/h (0 Bft)
07.12.2015 01:01 -0,7 C -0,9 C 85 % 1033,3 hPa 0,0 mm 0,0 km/h (0 Bft) NW 315 -2,9 C 0,0 km/h (0 Bft)
07.12.2015 01:06 -0,6 C -0,9 C 86 % 1033,3 hPa 0,0 mm 0,0 km/h (0 Bft) NW 315 -2,6 C 0,0 km/h (0 Bft)
07.12.2015 01:11 -0,8 C -1,0 C 86 % 1033,3 hPa 0,0 mm 0,0 km/h (0 Bft) NW 315 -2,8 C 0,0 km/h (0 Bft)
07.12.2015 01:16 -0,6 C -0,9 C 86 % 1033,3 hPa 0,0 mm 0,0 km/h (0 Bft) NW 315 -2,6 C 0,0 km/h (0 Bft)
07.12.2015 01:21 -0,4 C -0,8 C 86 % 1033,3 hPa 0,0 mm 0,0 km/h (0 Bft) NW 315 -2,4 C 0,0 km/h (0 Bft)
07.12.2015 01:26 -0,3 C -0,7 C 86 % 1033,3 hPa 0,0 mm 0,0 km/h (0 Bft) W-SW 247 -2,3 C 0,0 km/h (0 Bft)
07.12.2015 01:31 -0,1 C -0,5 C 87 % 1033,3 hPa 0,0 mm 0,0 km/h (0 Bft) S 180 -2,0 C 0,0 km/h (0 Bft)
07.12.2015 01:36 -0,3 C -0,7 C 87 % 1033,3 hPa 0,0 mm 0,0 km/h (0 Bft) S 180 -2,2 C 0,0 km/h (0 Bft)
07.12.2015 01:41 -0,4 C -0,8 C 87 % 1033,3 hPa 0,0 mm 0,0 km/h (0 Bft) S 180 -2,3 C 0,0 km/h (0 Bft)
07.12.2015 01:46 -0,5 C -0,8 C 87 % 1033,3 hPa 0,0 mm 0,0 km/h (0 Bft) S 180 -2,4 C 0,0 km/h (0 Bft)
07.12.2015 01:51 -0,3 C -0,7 C 87 % 1033,3 hPa 0,0 mm 0,0 km/h (0 Bft) S 180 -2,2 C 0,0 km/h (0 Bft)
07.12.2015 01:56 -0,3 C -0,7 C 87 % 1033,3 hPa 0,0 mm 0,0 km/h (0 Bft) S 180 -2,2 C 0,0 km/h (0 Bft)
07.12.2015 02:01 -0,4 C -0,7 C 83 % 1033,3 hPa 0,0 mm 0,0 km/h (0 Bft) S 180 -2,9 C 0,0 km/h (0 Bft)
07.12.2015 02:06 -0,4 C -0,8 C 88 % 1033,3 hPa 0,0 mm 0,0 km/h (0 Bft) S 180 -2,1 C 0,0 km/h (0 Bft)
07.12.2015 02:11 -0,7 C -1,0 C 87 % 1033,5 hPa 0,0 mm 0,0 km/h (0 Bft) W-SW 247 -2,6 C 0,0 km/h (0 Bft)
07.12.2015 02:16 -0,9 C -1,2 C 87 % 1033,5 hPa 0,0 mm 0,0 km/h (0 Bft) SW 225 -2,8 C 0,0 km/h (0 Bft)
07.12.2015 02:21 -0,3 C -0,7 C 88 % 1033,5 hPa 0,0 mm 0,0 km/h (0 Bft) S 180 -2,0 C 0,0 km/h (0 Bft)
07.12.2015 02:26 -0,3 C -0,7 C 88 % 1033,5 hPa 0,0 mm 0,0 km/h (0 Bft) S 180 -2,0 C 0,0 km/h (0 Bft)
07.12.2015 02:31 -0,5 C -0,8 C 88 % 1033,8 hPa 0,0 mm 0,0 km/h (0 Bft) S 180 -2,2 C 0,0 km/h (0 Bft)
07.12.2015 02:36 -0,4 C -0,7 C 88 % 1033,8 hPa 0,0 mm 0,0 km/h (0 Bft) S 180 -2,1 C 0,0 km/h (0 Bft)
07.12.2015 02:41 0,0 C -0,3 C 88 % 1033,8 hPa 0,0 mm 0,0 km/h (0 Bft) S 180 -1,7 C 0,0 km/h (0 Bft)
07.12.2015 02:46 0,3 C 0,0 C 89 % 1033,8 hPa 0,0 mm 0,0 km/h (0 Bft) W-SW 247 -1,3 C 0,0 km/h (0 Bft)
07.12.2015 02:51 0,2 C 0,0 C 89 % 1033,7 hPa 0,0 mm 0,0 km/h (0 Bft) W 270 -1,4 C 0,0 km/h (0 Bft)
07.12.2015 02:56 -0,1 C -0,2 C 88 % 1033,7 hPa 0,0 mm 0,0 km/h (0 Bft) W 270 -1,8 C 0,0 km/h (0 Bft)
07.12.2015 03:01 -0,2 C -0,3 C 88 % 1033,7 hPa 0,0 mm 0,0 km/h (0 Bft) W 270 -1,9 C 0,0 km/h (0 Bft)
07.12.2015 03:06 -0,3 C -0,5 C 88 % 1033,7 hPa 0,0 mm 0,0 km/h (0 Bft) W 270 -2,0 C 0,0 km/h (0 Bft)
07.12.2015 03:11 -0,4 C -0,6 C 88 % 1034,2 hPa 0,0 mm 0,0 km/h (0 Bft) W 270 -2,1 C 0,0 km/h (0 Bft)
07.12.2015 03:16 -0,5 C -0,7 C 88 % 1034,2 hPa 0,0 mm 0,0 km/h (0 Bft) W 270 -2,2 C 0,0 km/h (0 Bft)
07.12.2015 03:21 -0,7 C -0,9 C 88 % 1034,2 hPa 0,0 mm 0,0 km/h (0 Bft) W 270 -2,4 C 0,0 km/h (0 Bft)
07.12.2015 03:26 -0,7 C -0,9 C 88 % 1034,2 hPa 0,0 mm 0,0 km/h (0 Bft) NW 315 -2,4 C 0,0 km/h (0 Bft)
07.12.2015 03:31 -0,5 C -0,8 C 88 % 1033,2 hPa 0,0 mm 0,0 km/h (0 Bft) NW 315 -2,2 C 0,0 km/h (0 Bft)
07.12.2015 03:36 -0,7 C -0,9 C 88 % 1033,2 hPa 0,0 mm 0,3 km/h (0 Bft) N-NW 337 -2,4 C 0,0 km/h (0 Bft)
07.12.2015 03:41 -0,8 C -1,0 C 88 % 1033,2 hPa 0,0 mm 0,0 km/h (0 Bft) NW 315 -2,5 C 0,0 km/h (0 Bft)
07.12.2015 03:46 -0,7 C -1,0 C 88 % 1033,2 hPa 0,0 mm 0,0 km/h (0 Bft) NW 315 -2,4 C 0,0 km/h (0 Bft)
07.12.2015 03:51 -0,7 C -0,9 C 88 % 1033,5 hPa 0,0 mm 0,0 km/h (0 Bft) NW 315 -2,4 C 0,0 km/h (0 Bft)
07.12.2015 03:56 -0,5 C -0,8 C 88 % 1033,5 hPa 0,0 mm 0,0 km/h (0 Bft) N 360 -2,2 C 0,0 km/h (0 Bft)
07.12.2015 04:01 -0,7 C -1,0 C 88 % 1033,5 hPa 0,0 mm 0,0 km/h (0 Bft) N-NO 22 -2,4 C 0,0 km/h (0 Bft)
07.12.2015 04:06 -0,3 C -0,7 C 89 % 1033,5 hPa 0,0 mm 0,0 km/h (0 Bft) O-NO 67 -1,9 C 0,0 km/h (0 Bft)
07.12.2015 04:11 -0,5 C -0,8 C 89 % 1033,8 hPa 0,0 mm 0,0 km/h (0 Bft) O-NO 67 -2,1 C 0,0 km/h (0 Bft)
07.12.2015 04:16 -0,7 C -0,9 C 89 % 1033,8 hPa 0,0 mm 0,0 km/h (0 Bft) O 90 -2,3 C 0,0 km/h (0 Bft)
07.12.2015 04:21 0,2 C -0,3 C 89 % 1033,8 hPa 0,0 mm 0,3 km/h (0 Bft) S-SO 157 -1,4 C 0,0 km/h (0 Bft)
07.12.2015 04:26 0,3 C -0,1 C 89 % 1033,8 hPa 0,0 mm 0,5 km/h (0 Bft) W-SW 247 -1,3 C 7,0 km/h (2 Bft)
07.12.2015 04:31 0,1 C -0,2 C 89 % 1033,7 hPa 0,0 mm 0,8 km/h (0 Bft) S-SO 157 -1,5 C 0,0 km/h (0 Bft)
07.12.2015 04:36 -0,7 C -0,9 C 89 % 1033,7 hPa 0,0 mm 0,5 km/h (0 Bft) S-SO 157 -2,3 C 0,0 km/h (0 Bft)
07.12.2015 04:41 -0,9 C -1,1 C 89 % 1033,7 hPa 0,0 mm 0,0 km/h (0 Bft) S 180 -2,5 C 0,0 km/h (0 Bft)
07.12.2015 04:46 -1,1 C -1,2 C 88 % 1033,7 hPa 0,0 mm 0,0 km/h (0 Bft) W 270 -2,8 C 0,0 km/h (0 Bft)
07.12.2015 04:51 -1,2 C -1,4 C 88 % 1033,6 hPa 0,0 mm 0,0 km/h (0 Bft) W-SW 247 -2,9 C 0,0 km/h (0 Bft)
07.12.2015 04:56 -1,3 C -1,5 C 88 % 1033,6 hPa 0,0 mm 0,0 km/h (0 Bft) W-SW 247 -3,0 C 0,0 km/h (0 Bft)
07.12.2015 05:01 -1,4 C -1,6 C 88 % 1033,6 hPa 0,0 mm 0,0 km/h (0 Bft) W-SW 247 -3,1 C 0,0 km/h (0 Bft)
07.12.2015 05:06 -1,3 C -1,6 C 88 % 1033,6 hPa 0,0 mm 0,0 km/h (0 Bft) W 270 -3,0 C 0,0 km/h (0 Bft)
07.12.2015 05:11 -1,3 C -1,6 C 88 % 1033,6 hPa 0,0 mm 0,0 km/h (0 Bft) W 270 -3,0 C 0,0 km/h (0 Bft)
07.12.2015 05:16 -1,5 C -1,7 C 88 % 1033,6 hPa 0,0 mm 0,0 km/h (0 Bft) W 270 -3,2 C 0,0 km/h (0 Bft)
07.12.2015 05:21 -1,6 C -1,8 C 88 % 1033,6 hPa 0,0 mm 0,0 km/h (0 Bft) W 270 -3,3 C 0,0 km/h (0 Bft)
07.12.2015 05:26 -1,5 C -1,7 C 88 % 1033,6 hPa 0,0 mm 0,0 km/h (0 Bft) W 270 -3,2 C 0,0 km/h (0 Bft)
07.12.2015 05:31 -1,5 C -1,7 C 88 % 1033,9 hPa 0,0 mm 0,0 km/h (0 Bft) W 270 -3,2 C 0,0 km/h (0 Bft)
07.12.2015 05:36 -1,3 C -1,6 C 89 % 1033,9 hPa 0,0 mm 0,0 km/h (0 Bft) W 270 -2,9 C 0,0 km/h (0 Bft)
07.12.2015 05:41 -1,3 C -1,5 C 89 % 1033,9 hPa 0,0 mm 0,0 km/h (0 Bft) W 270 -2,9 C 0,0 km/h (0 Bft)
07.12.2015 05:46 -1,2 C -1,4 C 89 % 1033,9 hPa 0,0 mm 0,0 km/h (0 Bft) W 270 -2,8 C 0,0 km/h (0 Bft)
07.12.2015 05:51 -1,3 C -1,5 C 89 % 1034,0 hPa 0,0 mm 0,0 km/h (0 Bft) W 270 -2,9 C 0,0 km/h (0 Bft)
07.12.2015 05:56 -1,1 C -1,4 C 89 % 1034,0 hPa 0,0 mm 0,3 km/h (0 Bft) W 270 -2,7 C 0,0 km/h (0 Bft)
07.12.2015 06:02 -1,1 C -1,4 C 89 % 1034,0 hPa 0,0 mm 0,3 km/h (0 Bft) W 270 -2,7 C 0,0 km/h (0 Bft)
07.12.2015 06:05 -0,9 C -1,3 C 89 % 1034,0 hPa 0,0 mm 0,3 km/h (0 Bft) W 270 -2,5 C 0,0 km/h (0 Bft)
07.12.2015 06:10 -1,1 C -1,4 C 89 % 1034,0 hPa 0,0 mm 0,0 km/h (0 Bft) W-NW 292 -2,7 C 0,0 km/h (0 Bft)
07.12.2015 06:15 -1,0 C -1,3 C 89 % 1034,2 hPa 0,0 mm 0,0 km/h (0 Bft) W-NW 292 -2,6 C 0,0 km/h (0 Bft)
07.12.2015 06:20 -1,2 C -1,5 C 89 % 1034,2 hPa 0,0 mm 0,0 km/h (0 Bft) W 270 -2,8 C 0,0 km/h (0 Bft)
07.12.2015 06:25 -1,2 C -1,5 C 89 % 1034,2 hPa 0,0 mm 0,0 km/h (0 Bft) W-NW 292 -2,8 C 0,0 km/h (0 Bft)
07.12.2015 06:30 -1,4 C -1,7 C 89 % 1034,2 hPa 0,0 mm 0,0 km/h (0 Bft) W-NW 292 -3,0 C 0,0 km/h (0 Bft)
07.12.2015 06:35 -1,6 C -1,9 C 89 % 1034,0 hPa 0,0 mm 0,0 km/h (0 Bft) W-NW 292 -3,2 C 0,0 km/h (0 Bft)
07.12.2015 06:40 -1,7 C -1,9 C 89 % 1034,0 hPa 0,0 mm 0,0 km/h (0 Bft) W-NW 292 -3,3 C 0,0 km/h (0 Bft)
07.12.2015 06:45 -1,6 C -1,9 C 89 % 1034,0 hPa 0,0 mm 0,0 km/h (0 Bft) W-NW 292 -3,2 C 0,0 km/h (0 Bft)
07.12.2015 06:50 -1,6 C -1,9 C 89 % 1034,0 hPa 0,0 mm 0,0 km/h (0 Bft) W-NW 292 -3,2 C 0,0 km/h (0 Bft)
07.12.2015 06:55 -1,8 C -2,0 C 89 % 1034,1 hPa 0,0 mm 0,0 km/h (0 Bft) W-NW 292 -3,4 C 0,0 km/h (0 Bft)
07.12.2015 07:00 -1,7 C -2,0 C 89 % 1034,1 hPa 0,0 mm 0,0 km/h (0 Bft) N 360 -3,3 C 0,0 km/h (0 Bft)
07.12.2015 07:05 -1,6 C -1,9 C 89 % 1034,1 hPa 0,0 mm 0,0 km/h (0 Bft) N-NO 22 -3,2 C 0,0 km/h (0 Bft)
07.12.2015 07:10 -1,0 C -1,5 C 90 % 1034,1 hPa 0,0 mm 0,0 km/h (0 Bft) N-NO 22 -2,4 C 0,0 km/h (0 Bft)
07.12.2015 07:15 -1,3 C -1,6 C 90 % 1034,2 hPa 0,0 mm 0,0 km/h (0 Bft) N-NO 22 -2,7 C 0,0 km/h (0 Bft)
07.12.2015 07:20 -1,1 C -1,5 C 90 % 1034,2 hPa 0,0 mm 0,0 km/h (0 Bft) N-NO 22 -2,5 C 0,0 km/h (0 Bft)
07.12.2015 07:25 -1,3 C -1,6 C 90 % 1034,2 hPa 0,0 mm 0,0 km/h (0 Bft) N-NO 22 -2,7 C 0,0 km/h (0 Bft)
07.12.2015 07:30 -1,2 C -1,6 C 90 % 1034,2 hPa 0,0 mm 0,0 km/h (0 Bft) N-NO 22 -2,6 C 0,0 km/h (0 Bft)
07.12.2015 07:35 -1,1 C -1,5 C 90 % 1034,4 hPa 0,0 mm 0,0 km/h (0 Bft) N-NO 22 -2,5 C 0,0 km/h (0 Bft)
07.12.2015 07:40 -1,1 C -1,5 C 90 % 1034,4 hPa 0,0 mm 0,0 km/h (0 Bft) N-NO 22 -2,5 C 0,0 km/h (0 Bft)
07.12.2015 07:45 -1,3 C -1,6 C 90 % 1034,4 hPa 0,0 mm 0,0 km/h (0 Bft) N-NO 22 -2,7 C 0,0 km/h (0 Bft)
07.12.2015 07:50 -1,6 C -1,8 C 90 % 1034,4 hPa 0,0 mm 0,0 km/h (0 Bft) N-NO 22 -3,0 C 0,0 km/h (0 Bft)
07.12.2015 07:55 -1,6 C -1,8 C 90 % 1034,4 hPa 0,0 mm 0,0 km/h (0 Bft) N-NO 22 -3,0 C 0,0 km/h (0 Bft)
07.12.2015 08:00 -1,5 C -1,8 C 90 % 1034,4 hPa 0,0 mm 0,0 km/h (0 Bft) N-NO 22 -2,9 C 0,0 km/h (0 Bft)
07.12.2015 08:05 -1,6 C -1,8 C 90 % 1034,4 hPa 0,0 mm 0,0 km/h (0 Bft) N-NO 22 -3,0 C 0,0 km/h (0 Bft)
07.12.2015 08:10 -1,7 C -1,9 C 89 % 1034,4 hPa 0,0 mm 0,0 km/h (0 Bft) N-NO 22 -3,3 C 0,0 km/h (0 Bft)
07.12.2015 08:15 -1,5 C -1,8 C 90 % 1034,2 hPa 0,0 mm 0,0 km/h (0 Bft) N-NO 22 -2,9 C 0,0 km/h (0 Bft)
07.12.2015 08:20 -1,6 C -1,9 C 90 % 1034,2 hPa 0,0 mm 0,0 km/h (0 Bft) N-NO 22 -3,0 C 0,0 km/h (0 Bft)
07.12.2015 08:25 -1,5 C -1,8 C 90 % 1034,2 hPa 0,0 mm 0,0 km/h (0 Bft) N-NO 22 -2,9 C 0,0 km/h (0 Bft)
07.12.2015 08:30 -1,5 C -1,8 C 90 % 1034,2 hPa 0,0 mm 0,0 km/h (0 Bft) N-NO 22 -2,9 C 0,0 km/h (0 Bft)
07.12.2015 08:35 -1,1 C -1,5 C 90 % 1034,0 hPa 0,0 mm 0,0 km/h (0 Bft) N-NO 22 -2,5 C 0,0 km/h (0 Bft)
07.12.2015 08:40 -1,4 C -1,6 C 90 % 1034,0 hPa 0,0 mm 0,0 km/h (0 Bft) N-NO 22 -2,8 C 0,0 km/h (0 Bft)
07.12.2015 08:45 -1,4 C -1,6 C 90 % 1034,0 hPa 0,0 mm 0,0 km/h (0 Bft) N-NO 22 -2,8 C 0,0 km/h (0 Bft)
07.12.2015 08:50 -1,5 C -1,7 C 90 % 1034,0 hPa 0,0 mm 0,0 km/h (0 Bft) N-NO 22 -2,9 C 0,0 km/h (0 Bft)
07.12.2015 08:55 -1,6 C -1,8 C 90 % 1034,2 hPa 0,0 mm 0,0 km/h (0 Bft) N-NO 22 -3,0 C 0,0 km/h (0 Bft)
07.12.2015 09:00 -1,1 C -1,4 C 90 % 1034,2 hPa 0,0 mm 0,0 km/h (0 Bft) N-NO 22 -2,5 C 0,0 km/h (0 Bft)
07.12.2015 09:05 -0,9 C -1,2 C 91 % 1034,2 hPa 0,0 mm 0,0 km/h (0 Bft) N-NO 22 -2,2 C 0,0 km/h (0 Bft)
07.12.2015 09:10 -0,9 C -1,1 C 91 % 1034,2 hPa 0,0 mm 0,0 km/h (0 Bft) N-NO 22 -2,2 C 0,0 km/h (0 Bft)
07.12.2015 09:15 -0,9 C -1,1 C 91 % 1034,3 hPa 0,0 mm 0,0 km/h (0 Bft) N-NO 22 -2,2 C 0,0 km/h (0 Bft)
07.12.2015 09:20 -0,6 C -0,7 C 86 % 1034,3 hPa 0,0 mm 0,0 km/h (0 Bft) NO 45 -2,6 C 0,0 km/h (0 Bft)
07.12.2015 09:25 -0,3 C -0,3 C 86 % 1034,3 hPa 0,0 mm 0,0 km/h (0 Bft) O-NO 67 -2,3 C 0,0 km/h (0 Bft)
07.12.2015 09:30 0,1 C -0,2 C 92 % 1034,3 hPa 0,0 mm 0,0 km/h (0 Bft) NO 45 -1,0 C 0,0 km/h (0 Bft)
07.12.2015 09:35 0,2 C 0,0 C 92 % 1034,1 hPa 0,0 mm 0,0 km/h (0 Bft) NO 45 -0,9 C 0,0 km/h (0 Bft)
07.12.2015 09:40 0,4 C 0,2 C 92 % 1034,1 hPa 0,0 mm 0,0 km/h (0 Bft) NO 45 -0,7 C 0,0 km/h (0 Bft)
07.12.2015 09:45 0,5 C 0,3 C 92 % 1034,1 hPa 0,0 mm 0,0 km/h (0 Bft) NO 45 -0,6 C 0,0 km/h (0 Bft)
07.12.2015 09:50 0,5 C 0,5 C 92 % 1034,1 hPa 0,0 mm 0,0 km/h (0 Bft) NO 45 -0,6 C 0,0 km/h (0 Bft)
07.12.2015 09:55 0,7 C 0,7 C 92 % 1034,2 hPa 0,0 mm 0,0 km/h (0 Bft) O-NO 67 -0,4 C 0,0 km/h (0 Bft)
07.12.2015 10:00 1,0 C 1,0 C 92 % 1034,2 hPa 0,0 mm 0,0 km/h (0 Bft) O-NO 67 -0,2 C 0,0 km/h (0 Bft)
07.12.2015 10:05 1,6 C 1,4 C 92 % 1034,2 hPa 0,0 mm 0,0 km/h (0 Bft) O-NO 67 0,4 C 0,0 km/h (0 Bft)
07.12.2015 10:10 2,4 C 2,0 C 92 % 1034,2 hPa 0,0 mm 0,0 km/h (0 Bft) O-SO 112 1,2 C 0,0 km/h (0 Bft)
07.12.2015 10:15 2,2 C 2,0 C 92 % 1034,5 hPa 0,0 mm 0,0 km/h (0 Bft) O 90 1,0 C 0,0 km/h (0 Bft)
07.12.2015 10:20 2,6 C 2,3 C 92 % 1034,5 hPa 0,0 mm 0,0 km/h (0 Bft) O-SO 112 1,4 C 0,0 km/h (0 Bft)
07.12.2015 10:25 3,2 C 2,8 C 91 % 1034,5 hPa 0,0 mm 0,0 km/h (0 Bft) SO 135 1,9 C 0,0 km/h (0 Bft)
07.12.2015 10:30 3,2 C 2,9 C 91 % 1034,5 hPa 0,0 mm 0,0 km/h (0 Bft) O-SO 112 1,9 C 0,0 km/h (0 Bft)
07.12.2015 10:35 3,1 C 2,8 C 91 % 1034,5 hPa 0,0 mm 0,0 km/h (0 Bft) SO 135 1,8 C 0,0 km/h (0 Bft)
07.12.2015 10:40 3,9 C 3,4 C 90 % 1034,5 hPa 0,0 mm 0,0 km/h (0 Bft) SO 135 2,4 C 0,0 km/h (0 Bft)
07.12.2015 10:45 3,7 C 3,3 C 90 % 1034,5 hPa 0,0 mm 0,0 km/h (0 Bft) SO 135 2,2 C 0,0 km/h (0 Bft)
07.12.2015 10:50 4,2 C 3,7 C 89 % 1034,5 hPa 0,0 mm 0,0 km/h (0 Bft) O-SO 112 2,6 C 0,0 km/h (0 Bft)
07.12.2015 10:55 4,0 C 3,7 C 89 % 1034,5 hPa 0,0 mm 0,0 km/h (0 Bft) O-SO 112 2,4 C 0,0 km/h (0 Bft)
07.12.2015 11:00 4,0 C 3,8 C 89 % 1034,5 hPa 0,0 mm 0,0 km/h (0 Bft) O-SO 112 2,4 C 0,0 km/h (0 Bft)
07.12.2015 11:05 4,1 C 4,0 C 89 % 1034,5 hPa 0,0 mm 0,0 km/h (0 Bft) SO 135 2,5 C 0,0 km/h (0 Bft)
07.12.2015 11:10 4,6 C 4,5 C 88 % 1034,5 hPa 0,0 mm 0,0 km/h (0 Bft) O-SO 112 2,8 C 0,0 km/h (0 Bft)
07.12.2015 11:15 4,6 C 4,5 C 88 % 1034,3 hPa 0,0 mm 0,0 km/h (0 Bft) O-SO 112 2,8 C 0,0 km/h (0 Bft)
07.12.2015 11:20 5,5 C 5,2 C 87 % 1034,3 hPa 0,0 mm 0,0 km/h (0 Bft) O-SO 112 3,5 C 0,0 km/h (0 Bft)
07.12.2015 11:25 5,8 C 5,5 C 86 % 1034,3 hPa 0,0 mm 0,0 km/h (0 Bft) O-SO 112 3,6 C 0,0 km/h (0 Bft)
07.12.2015 11:30 5,3 C 5,4 C 85 % 1034,3 hPa 0,0 mm 0,0 km/h (0 Bft) O-SO 112 3,0 C 0,0 km/h (0 Bft)
07.12.2015 11:35 5,4 C 5,4 C 84 % 1034,1 hPa 0,0 mm 0,0 km/h (0 Bft) SO 135 2,9 C 0,0 km/h (0 Bft)
07.12.2015 11:40 5,5 C 5,5 C 84 % 1034,1 hPa 0,0 mm 0,0 km/h (0 Bft) SO 135 3,0 C 0,0 km/h (0 Bft)
07.12.2015 11:45 5,7 C 5,7 C 83 % 1034,1 hPa 0,0 mm 0,0 km/h (0 Bft) SO 135 3,0 C 0,0 km/h (0 Bft)
07.12.2015 11:50 6,2 C 6,0 C 81 % 1034,1 hPa 0,0 mm 0,0 km/h (0 Bft) SO 135 3,2 C 0,0 km/h (0 Bft)
07.12.2015 11:55 6,4 C 6,1 C 80 % 1033,9 hPa 0,0 mm 0,0 km/h (0 Bft) SO 135 3,2 C 0,0 km/h (0 Bft)
07.12.2015 12:00 6,6 C 6,4 C 79 % 1033,9 hPa 0,0 mm 0,0 km/h (0 Bft) O-SO 112 3,2 C 0,0 km/h (0 Bft)
07.12.2015 12:02 6,6 C 6,4 C 79 % 1033,9 hPa 0,0 mm 0,0 km/h (0 Bft) O-SO 112 3,2 C 0,0 km/h (0 Bft)
07.12.2015 12:05 6,7 C 6,6 C 77 % 1033,9 hPa 0,0 mm 0,0 km/h (0 Bft) O 90 3,0 C 0,0 km/h (0 Bft)
07.12.2015 12:10 6,5 C 6,8 C 77 % 1033,9 hPa 0,0 mm 0,0 km/h (0 Bft) O-NO 67 2,8 C 0,0 km/h (0 Bft)
07.12.2015 12:15 6,6 C 7,0 C 77 % 1033,7 hPa 0,0 mm 0,0 km/h (0 Bft) O-NO 67 2,9 C 0,0 km/h (0 Bft)
07.12.2015 12:20 6,7 C 7,0 C 76 % 1033,7 hPa 0,0 mm 0,0 km/h (0 Bft) SO 135 2,8 C 0,0 km/h (0 Bft)
07.12.2015 12:25 6,8 C 7,1 C 75 % 1033,7 hPa 0,0 mm 0,0 km/h (0 Bft) SO 135 2,7 C 0,0 km/h (0 Bft)
07.12.2015 12:30 7,3 C 7,3 C 72 % 1033,7 hPa 0,0 mm 0,0 km/h (0 Bft) SO 135 2,6 C 0,0 km/h (0 Bft)
07.12.2015 12:35 7,1 C 7,3 C 72 % 1033,5 hPa 0,0 mm 0,0 km/h (0 Bft) O-NO 67 2,4 C 0,0 km/h (0 Bft)
07.12.2015 12:40 6,8 C 7,6 C 72 % 1033,5 hPa 0,0 mm 0,3 km/h (0 Bft) O-NO 67 2,1 C 0,0 km/h (0 Bft)
07.12.2015 12:45 6,9 C 7,6 C 72 % 1033,5 hPa 0,0 mm 0,3 km/h (0 Bft) O 90 2,2 C 0,0 km/h (0 Bft)
07.12.2015 12:50 6,8 C 7,8 C 71 % 1033,5 hPa 0,0 mm 0,0 km/h (0 Bft) O-SO 112 1,9 C 0,0 km/h (0 Bft)
07.12.2015 12:55 6,9 C 8,1 C 71 % 1033,3 hPa 0,0 mm 0,5 km/h (0 Bft) O-NO 67 2,0 C 0,0 km/h (0 Bft)
07.12.2015 13:00 7,9 C 8,4 C 69 % 1033,3 hPa 0,0 mm 0,8 km/h (0 Bft) O-NO 67 2,6 C 0,0 km/h (0 Bft)
07.12.2015 13:05 7,3 C 8,5 C 69 % 1033,3 hPa 0,0 mm 0,3 km/h (0 Bft) O-SO 112 2,0 C 0,0 km/h (0 Bft)
07.12.2015 13:10 7,6 C 8,4 C 69 % 1033,3 hPa 0,0 mm 0,0 km/h (0 Bft) O-NO 67 2,3 C 0,0 km/h (0 Bft)
07.12.2015 13:15 7,5 C 8,4 C 69 % 1032,8 hPa 0,0 mm 0,0 km/h (0 Bft) O-NO 67 2,2 C 0,0 km/h (0 Bft)
07.12.2015 13:20 7,5 C 8,5 C 68 % 1032,8 hPa 0,0 mm 0,0 km/h (0 Bft) O-NO 67 2,0 C 0,0 km/h (0 Bft)
07.12.2015 13:25 7,4 C 8,6 C 68 % 1032,8 hPa 0,0 mm 0,0 km/h (0 Bft) O-SO 112 1,9 C 0,0 km/h (0 Bft)
07.12.2015 13:30 7,9 C 8,8 C 67 % 1032,8 hPa 0,0 mm 0,0 km/h (0 Bft) O-SO 112 2,2 C 0,0 km/h (0 Bft)
07.12.2015 13:35 7,6 C 9,0 C 67 % 1032,7 hPa 0,0 mm 0,0 km/h (0 Bft) O-NO 67 1,9 C 0,0 km/h (0 Bft)
07.12.2015 13:40 8,5 C 10,5 C 65 % 1032,7 hPa 0,0 mm 0,3 km/h (0 Bft) O-NO 67 2,3 C 0,0 km/h (0 Bft)
07.12.2015 13:45 8,7 C 11,6 C 64 % 1032,7 hPa 0,0 mm 0,5 km/h (0 Bft) O-NO 67 2,3 C 5,4 km/h (1 Bft)
07.12.2015 13:50 9,0 C 14,0 C 65 % 1032,7 hPa 0,0 mm 0,5 km/h (0 Bft) O-SO 112 2,8 C 0,0 km/h (0 Bft)
07.12.2015 13:55 9,3 C 14,9 C 63 % 1032,7 hPa 0,0 mm 0,3 km/h (0 Bft) O-NO 67 2,6 C 2,6 km/h (1 Bft)
07.12.2015 14:00 8,8 C 15,2 C 63 % 1032,7 hPa 0,0 mm 1,6 km/h (1 Bft) NO 45 2,2 C 8,5 km/h (2 Bft)
07.12.2015 14:05 8,7 C 15,2 C 63 % 1032,7 hPa 0,0 mm 2,1 km/h (1 Bft) O-SO 112 2,1 C 0,0 km/h (0 Bft)
07.12.2015 14:10 8,2 C 15,0 C 63 % 1032,7 hPa 0,0 mm 0,8 km/h (0 Bft) O-SO 112 1,6 C 0,0 km/h (0 Bft)
07.12.2015 14:15 8,0 C 13,9 C 64 % 1033,2 hPa 0,0 mm 0,0 km/h (0 Bft) O-SO 112 1,6 C 0,0 km/h (0 Bft)
07.12.2015 14:20 8,0 C 13,3 C 64 % 1033,2 hPa 0,0 mm 1,3 km/h (1 Bft) SO 135 1,6 C 0,0 km/h (0 Bft)
07.12.2015 14:25 8,0 C 12,9 C 64 % 1033,2 hPa 0,0 mm 1,8 km/h (1 Bft) O 90 1,6 C 0,0 km/h (0 Bft)
07.12.2015 14:30 7,8 C 11,4 C 64 % 1033,2 hPa 0,0 mm 1,3 km/h (1 Bft) O-NO 67 1,4 C 0,0 km/h (0 Bft)
07.12.2015 14:35 7,7 C 11,2 C 64 % 1032,8 hPa 0,0 mm 1,0 km/h (0 Bft) O 90 1,3 C 0,0 km/h (0 Bft)
07.12.2015 14:40 7,5 C 12,4 C 64 % 1032,8 hPa 0,0 mm 0,8 km/h (0 Bft) O-SO 112 1,1 C 5,2 km/h (1 Bft)
07.12.2015 14:45 7,7 C 12,6 C 64 % 1032,8 hPa 0,0 mm 1,0 km/h (0 Bft) N-NO 22 1,3 C 6,2 km/h (2 Bft)
07.12.2015 14:50 7,4 C 11,5 C 64 % 1032,8 hPa 0,0 mm 1,3 km/h (1 Bft) O-SO 112 1,0 C 0,0 km/h (0 Bft)
07.12.2015 14:55 7,2 C 11,4 C 64 % 1032,3 hPa 0,0 mm 0,8 km/h (0 Bft) O 90 0,9 C 0,0 km/h (0 Bft)
07.12.2015 15:00 7,2 C 11,8 C 65 % 1032,3 hPa 0,0 mm 0,0 km/h (0 Bft) O-SO 112 1,1 C 0,0 km/h (0 Bft)
07.12.2015 15:05 7,0 C 10,9 C 65 % 1032,3 hPa 0,0 mm 0,5 km/h (0 Bft) O-NO 67 0,9 C 3,6 km/h (1 Bft)
07.12.2015 15:10 6,7 C 9,3 C 65 % 1032,3 hPa 0,0 mm 0,8 km/h (0 Bft) O-SO 112 0,6 C 0,0 km/h (0 Bft)
07.12.2015 15:15 6,9 C 8,6 C 65 % 1032,6 hPa 0,0 mm 0,8 km/h (0 Bft) O-SO 112 0,8 C 0,0 km/h (0 Bft)
07.12.2015 15:20 7,1 C 7,9 C 66 % 1032,6 hPa 0,0 mm 0,3 km/h (0 Bft) SO 135 1,2 C 0,0 km/h (0 Bft)
07.12.2015 15:25 7,1 C 7,6 C 66 % 1032,6 hPa 0,0 mm 0,3 km/h (0 Bft) O-SO 112 1,2 C 0,0 km/h (0 Bft)
07.12.2015 15:30 6,6 C 7,1 C 67 % 1032,6 hPa 0,0 mm 0,3 km/h (0 Bft) O 90 0,9 C 0,0 km/h (0 Bft)
07.12.2015 15:35 6,8 C 6,9 C 67 % 1032,3 hPa 0,0 mm 0,0 km/h (0 Bft) SO 135 1,1 C 0,0 km/h (0 Bft)
07.12.2015 15:40 7,2 C 7,1 C 67 % 1032,3 hPa 0,0 mm 0,0 km/h (0 Bft) SO 135 1,5 C 0,0 km/h (0 Bft)
07.12.2015 15:45 7,2 C 7,0 C 67 % 1032,3 hPa 0,0 mm 0,0 km/h (0 Bft) O-SO 112 1,5 C 0,0 km/h (0 Bft)
07.12.2015 15:50 7,0 C 6,8 C 67 % 1032,3 hPa 0,0 mm 0,0 km/h (0 Bft) O-SO 112 1,3 C 0,0 km/h (0 Bft)
07.12.2015 15:55 7,0 C 6,8 C 67 % 1032,3 hPa 0,0 mm 0,0 km/h (0 Bft) SO 135 1,3 C 0,0 km/h (0 Bft)
07.12.2015 16:00 6,9 C 6,7 C 67 % 1032,3 hPa 0,0 mm 0,0 km/h (0 Bft) SO 135 1,2 C 0,0 km/h (0 Bft)
07.12.2015 16:05 6,8 C 6,5 C 67 % 1032,3 hPa 0,0 mm 0,0 km/h (0 Bft) SO 135 1,1 C 0,0 km/h (0 Bft)
07.12.2015 16:10 6,6 C 6,3 C 68 % 1032,3 hPa 0,0 mm 0,0 km/h (0 Bft) SO 135 1,1 C 0,0 km/h (0 Bft)
07.12.2015 16:15 6,6 C 6,2 C 68 % 1032,3 hPa 0,0 mm 0,0 km/h (0 Bft) SO 135 1,1 C 0,0 km/h (0 Bft)
07.12.2015 16:20 6,5 C 6,2 C 68 % 1032,3 hPa 0,0 mm 0,3 km/h (0 Bft) SO 135 1,0 C 0,0 km/h (0 Bft)
07.12.2015 16:25 6,4 C 6,1 C 68 % 1032,3 hPa 0,0 mm 0,3 km/h (0 Bft) SO 135 0,9 C 0,0 km/h (0 Bft)
07.12.2015 16:30 6,4 C 6,0 C 69 % 1032,3 hPa 0,0 mm 0,0 km/h (0 Bft) S-SO 157 1,1 C 0,0 km/h (0 Bft)
07.12.2015 16:35 6,2 C 5,9 C 69 % 1032,2 hPa 0,0 mm 0,0 km/h (0 Bft) SO 135 0,9 C 0,0 km/h (0 Bft)
07.12.2015 16:40 5,2 C 5,1 C 69 % 1032,2 hPa 0,0 mm 0,0 km/h (0 Bft) SO 135 -0,0 C 0,0 km/h (0 Bft)
07.12.2015 16:45 4,2 C 4,2 C 69 % 1032,2 hPa 0,0 mm 0,0 km/h (0 Bft) S-SO 157 -1,0 C 0,0 km/h (0 Bft)
07.12.2015 16:50 4,1 C 3,8 C 70 % 1032,2 hPa 0,0 mm 0,0 km/h (0 Bft) S-SO 157 -0,9 C 0,0 km/h (0 Bft)
07.12.2015 16:55 4,1 C 3,6 C 72 % 1032,2 hPa 0,0 mm 0,0 km/h (0 Bft) S-SO 157 -0,5 C 0,0 km/h (0 Bft)
07.12.2015 17:00 3,5 C 3,1 C 72 % 1032,2 hPa 0,0 mm 0,0 km/h (0 Bft) S-SO 157 -1,1 C 0,0 km/h (0 Bft)
07.12.2015 17:05 3,0 C 2,7 C 72 % 1032,2 hPa 0,0 mm 0,0 km/h (0 Bft) S-SO 157 -1,5 C 0,0 km/h (0 Bft)
07.12.2015 17:10 3,4 C 2,8 C 75 % 1032,2 hPa 0,0 mm 0,0 km/h (0 Bft) SO 135 -0,6 C 0,0 km/h (0 Bft)
07.12.2015 17:15 2,8 C 2,4 C 76 % 1032,1 hPa 0,0 mm 0,0 km/h (0 Bft) S-SO 157 -1,0 C 0,0 km/h (0 Bft)
07.12.2015 17:20 3,1 C 2,7 C 73 % 1032,1 hPa 0,0 mm 0,0 km/h (0 Bft) S-SO 157 -1,3 C 0,0 km/h (0 Bft)
07.12.2015 17:25 2,7 C 2,4 C 76 % 1032,1 hPa 0,0 mm 0,0 km/h (0 Bft) S-SO 157 -1,1 C 0,0 km/h (0 Bft)
07.12.2015 17:30 2,3 C 2,0 C 76 % 1032,1 hPa 0,0 mm 0,0 km/h (0 Bft) O-NO 67 -1,5 C 0,0 km/h (0 Bft)
07.12.2015 17:35 1,9 C 1,7 C 76 % 1032,0 hPa 0,0 mm 0,0 km/h (0 Bft) O-NO 67 -1,9 C 0,0 km/h (0 Bft)
07.12.2015 17:40 1,7 C 1,4 C 77 % 1032,0 hPa 0,0 mm 0,0 km/h (0 Bft) O-NO 67 -1,9 C 0,0 km/h (0 Bft)
07.12.2015 17:45 1,9 C 1,4 C 78 % 1032,0 hPa 0,0 mm 0,0 km/h (0 Bft) O-NO 67 -1,5 C 0,0 km/h (0 Bft)
07.12.2015 17:50 1,4 C 1,1 C 77 % 1032,0 hPa 0,0 mm 0,0 km/h (0 Bft) O-NO 67 -2,2 C 0,0 km/h (0 Bft)
07.12.2015 17:55 1,2 C 0,9 C 78 % 1032,4 hPa 0,0 mm 0,0 km/h (0 Bft) O-NO 67 -2,2 C 0,0 km/h (0 Bft)
07.12.2015 18:00 1,1 C 0,7 C 78 % 1032,4 hPa 0,0 mm 0,0 km/h (0 Bft) O-NO 67 -2,3 C 0,0 km/h (0 Bft)
07.12.2015 18:01 1,0 C 0,6 C 78 % 1032,4 hPa 0,0 mm 0,0 km/h (0 Bft) O-NO 67 -2,4 C 0,0 km/h (0 Bft)
07.12.2015 18:03 1,0 C 0,6 C 78 % 1032,4 hPa 0,0 mm 0,0 km/h (0 Bft) O-NO 67 -2,4 C 0,0 km/h (0 Bft)
07.12.2015 18:05 1,0 C 0,6 C 78 % 1032,4 hPa 0,0 mm 0,0 km/h (0 Bft) O-NO 67 -2,4 C 0,0 km/h (0 Bft)
07.12.2015 18:10 1,2 C 0,7 C 79 % 1032,4 hPa 0,0 mm 0,0 km/h (0 Bft) O-SO 112 -2,0 C 0,0 km/h (0 Bft)
07.12.2015 18:15 1,2 C 0,7 C 79 % 1032,2 hPa 0,0 mm 0,0 km/h (0 Bft) O-NO 67 -2,0 C 0,0 km/h (0 Bft)
07.12.2015 18:20 1,0 C 0,5 C 79 % 1032,2 hPa 0,0 mm 0,0 km/h (0 Bft) O-NO 67 -2,2 C 0,0 km/h (0 Bft)
07.12.2015 18:25 0,6 C 0,2 C 79 % 1032,2 hPa 0,0 mm 0,0 km/h (0 Bft) O-NO 67 -2,6 C 0,0 km/h (0 Bft)
07.12.2015 18:30 0,5 C 0,0 C 79 % 1032,2 hPa 0,0 mm 0,0 km/h (0 Bft) O-NO 67 -2,7 C 0,0 km/h (0 Bft)
07.12.2015 18:35 0,3 C -0,1 C 80 % 1032,3 hPa 0,0 mm 0,0 km/h (0 Bft) O-NO 67 -2,7 C 0,0 km/h (0 Bft)
07.12.2015 18:40 0,6 C 0,1 C 81 % 1032,3 hPa 0,0 mm 0,0 km/h (0 Bft) O 90 -2,3 C 0,0 km/h (0 Bft)
07.12.2015 18:45 0,6 C 0,1 C 82 % 1032,3 hPa 0,0 mm 0,0 km/h (0 Bft) O-SO 112 -2,1 C 0,0 km/h (0 Bft)
07.12.2015 18:50 0,4 C 0,1 C 82 % 1032,3 hPa 0,0 mm 0,0 km/h (0 Bft) O-NO 67 -2,3 C 0,0 km/h (0 Bft)
07.12.2015 18:55 0,2 C -0,1 C 82 % 1032,1 hPa 0,0 mm 0,0 km/h (0 Bft) O-NO 67 -2,5 C 0,0 km/h (0 Bft)
07.12.2015 19:00 0,2 C -0,1 C 82 % 1032,1 hPa 0,0 mm 0,0 km/h (0 Bft) O-NO 67 -2,5 C 0,0 km/h (0 Bft)
07.12.2015 19:05 0,1 C -0,2 C 82 % 1032,1 hPa 0,0 mm 0,0 km/h (0 Bft) O-NO 67 -2,6 C 0,0 km/h (0 Bft)
07.12.2015 19:10 -0,2 C -0,4 C 82 % 1032,1 hPa 0,0 mm 0,0 km/h (0 Bft) O-NO 67 -2,9 C 0,0 km/h (0 Bft)
07.12.2015 19:15 -0,5 C -0,7 C 82 % 1032,1 hPa 0,0 mm 0,0 km/h (0 Bft) O-NO 67 -3,2 C 0,0 km/h (0 Bft)
07.12.2015 19:20 -0,5 C -0,8 C 82 % 1032,1 hPa 0,0 mm 0,0 km/h (0 Bft) O-NO 67 -3,2 C 0,0 km/h (0 Bft)
07.12.2015 19:25 -0,3 C -0,7 C 83 % 1032,1 hPa 0,0 mm 0,0 km/h (0 Bft) O-NO 67 -2,8 C 0,0 km/h (0 Bft)
07.12.2015 19:30 -0,2 C -0,6 C 84 % 1032,1 hPa 0,0 mm 0,0 km/h (0 Bft) O-NO 67 -2,6 C 0,0 km/h (0 Bft)
07.12.2015 19:35 -0,3 C -0,7 C 84 % 1032,3 hPa 0,0 mm 0,0 km/h (0 Bft) O-NO 67 -2,7 C 0,0 km/h (0 Bft)
07.12.2015 19:40 -0,6 C -0,9 C 84 % 1032,3 hPa 0,0 mm 0,0 km/h (0 Bft) O-NO 67 -3,0 C 0,0 km/h (0 Bft)
07.12.2015 19:45 -0,4 C -0,8 C 84 % 1032,3 hPa 0,0 mm 0,0 km/h (0 Bft) O-NO 67 -2,8 C 0,0 km/h (0 Bft)
07.12.2015 19:50 -0,5 C -0,9 C 84 % 1032,3 hPa 0,0 mm 0,0 km/h (0 Bft) O-NO 67 -2,9 C 0,0 km/h (0 Bft)
07.12.2015 19:55 -0,8 C -1,0 C 84 % 1032,1 hPa 0,0 mm 0,0 km/h (0 Bft) O-NO 67 -3,2 C 0,0 km/h (0 Bft)
07.12.2015 20:00 -0,7 C -1,1 C 84 % 1032,1 hPa 0,0 mm 0,0 km/h (0 Bft) O-NO 67 -3,1 C 0,0 km/h (0 Bft)
07.12.2015 20:05 -0,9 C -1,3 C 84 % 1032,1 hPa 0,0 mm 0,0 km/h (0 Bft) O-NO 67 -3,3 C 0,0 km/h (0 Bft)
07.12.2015 20:10 -0,9 C -1,2 C 84 % 1032,1 hPa 0,0 mm 0,0 km/h (0 Bft) O-NO 67 -3,3 C 0,0 km/h (0 Bft)
07.12.2015 20:15 -0,5 C -0,9 C 85 % 1032,1 hPa 0,0 mm 0,0 km/h (0 Bft) O-NO 67 -2,7 C 0,0 km/h (0 Bft)
07.12.2015 20:20 -1,0 C -1,3 C 85 % 1032,1 hPa 0,0 mm 0,0 km/h (0 Bft) O-NO 67 -3,2 C 0,0 km/h (0 Bft)
07.12.2015 20:25 -1,0 C -1,3 C 85 % 1032,1 hPa 0,0 mm 0,0 km/h (0 Bft) O-NO 67 -3,2 C 0,0 km/h (0 Bft)
07.12.2015 20:30 -0,5 C -1,0 C 86 % 1032,1 hPa 0,0 mm 0,0 km/h (0 Bft) O-NO 67 -2,5 C 0,0 km/h (0 Bft)
07.12.2015 20:35 -0,9 C -1,3 C 86 % 1032,1 hPa 0,0 mm 0,0 km/h (0 Bft) O-NO 67 -2,9 C 0,0 km/h (0 Bft)
07.12.2015 20:40 -0,7 C -1,1 C 86 % 1032,1 hPa 0,0 mm 0,0 km/h (0 Bft) O-NO 67 -2,7 C 0,0 km/h (0 Bft)
07.12.2015 20:45 -1,2 C -1,5 C 86 % 1032,1 hPa 0,0 mm 0,0 km/h (0 Bft) O-NO 67 -3,2 C 0,0 km/h (0 Bft)
07.12.2015 20:50 -1,4 C -1,7 C 86 % 1032,1 hPa 0,0 mm 0,0 km/h (0 Bft) O-NO 67 -3,4 C 0,0 km/h (0 Bft)
07.12.2015 20:55 -1,6 C -1,9 C 86 % 1031,9 hPa 0,0 mm 0,0 km/h (0 Bft) O-NO 67 -3,6 C 0,0 km/h (0 Bft)
07.12.2015 21:00 -1,3 C -1,7 C 86 % 1031,9 hPa 0,0 mm 0,0 km/h (0 Bft) O-NO 67 -3,3 C 0,0 km/h (0 Bft)
07.12.2015 21:05 -1,7 C -2,0 C 86 % 1031,9 hPa 0,0 mm 0,0 km/h (0 Bft) O-SO 112 -3,7 C 0,0 km/h (0 Bft)
07.12.2015 21:10 -1,7 C -2,0 C 86 % 1031,9 hPa 0,0 mm 0,0 km/h (0 Bft) O-NO 67 -3,7 C 0,0 km/h (0 Bft)
07.12.2015 21:15 -1,6 C -1,9 C 86 % 1032,3 hPa 0,0 mm 0,0 km/h (0 Bft) O-NO 67 -3,6 C 0,0 km/h (0 Bft)
07.12.2015 21:20 -1,8 C -2,1 C 86 % 1032,3 hPa 0,0 mm 0,0 km/h (0 Bft) S-SO 157 -3,8 C 0,0 km/h (0 Bft)
07.12.2015 21:25 -1,5 C -1,9 C 86 % 1032,3 hPa 0,0 mm 0,0 km/h (0 Bft) S-SO 157 -3,5 C 0,0 km/h (0 Bft)
07.12.2015 21:30 -1,7 C -2,0 C 86 % 1032,3 hPa 0,0 mm 0,0 km/h (0 Bft) S 180 -3,7 C 0,0 km/h (0 Bft)
07.12.2015 21:35 -1,8 C -2,0 C 86 % 1032,7 hPa 0,0 mm 0,3 km/h (0 Bft) N-NO 22 -3,8 C 0,0 km/h (0 Bft)
07.12.2015 21:40 -1,4 C -1,7 C 87 % 1032,7 hPa 0,0 mm 0,3 km/h (0 Bft) NO 45 -3,3 C 0,0 km/h (0 Bft)
07.12.2015 21:45 -1,1 C -1,5 C 87 % 1032,7 hPa 0,0 mm 0,0 km/h (0 Bft) S-SO 157 -3,0 C 0,0 km/h (0 Bft)
07.12.2015 21:50 -1,7 C -1,8 C 87 % 1032,7 hPa 0,0 mm 0,0 km/h (0 Bft) W 270 -3,6 C 0,0 km/h (0 Bft)
07.12.2015 21:55 -1,4 C -1,4 C 83 % 1032,7 hPa 0,0 mm 0,8 km/h (0 Bft) SW 225 -3,9 C 8,0 km/h (2 Bft)
07.12.2015 22:00 -1,2 C -1,2 C 88 % 1032,7 hPa 0,0 mm 1,8 km/h (1 Bft) O-NO 67 -2,9 C 9,1 km/h (2 Bft)
07.12.2015 22:05 -1,5 C -1,4 C 88 % 1032,7 hPa 0,0 mm 1,6 km/h (1 Bft) SO 135 -3,2 C 0,0 km/h (0 Bft)
07.12.2015 22:10 -1,8 C -1,9 C 87 % 1032,7 hPa 0,0 mm 0,3 km/h (0 Bft) SO 135 -3,7 C 0,0 km/h (0 Bft)
07.12.2015 22:15 -1,8 C -2,0 C 87 % 1032,5 hPa 0,0 mm 0,0 km/h (0 Bft) S 180 -3,7 C 0,0 km/h (0 Bft)
07.12.2015 22:20 -1,7 C -1,9 C 88 % 1032,5 hPa 0,0 mm 0,0 km/h (0 Bft) O-SO 112 -3,4 C 0,0 km/h (0 Bft)
07.12.2015 22:25 -1,9 C -2,0 C 87 % 1032,5 hPa 0,0 mm 0,0 km/h (0 Bft) O-SO 112 -3,8 C 0,0 km/h (0 Bft)
07.12.2015 22:30 -1,8 C -2,0 C 88 % 1032,5 hPa 0,0 mm 0,0 km/h (0 Bft) O-SO 112 -3,5 C 0,0 km/h (0 Bft)
07.12.2015 22:35 -2,0 C -2,2 C 88 % 1032,7 hPa 0,0 mm 0,0 km/h (0 Bft) O-SO 112 -3,7 C 0,0 km/h (0 Bft)
07.12.2015 22:40 -2,0 C -2,3 C 88 % 1032,7 hPa 0,0 mm 0,0 km/h (0 Bft) O-SO 112 -3,7 C 0,0 km/h (0 Bft)
07.12.2015 22:45 -1,7 C -2,1 C 88 % 1032,7 hPa 0,0 mm 0,0 km/h (0 Bft) O-SO 112 -3,4 C 0,0 km/h (0 Bft)
07.12.2015 22:50 -2,0 C -2,4 C 88 % 1032,7 hPa 0,0 mm 0,0 km/h (0 Bft) O-SO 112 -3,7 C 0,0 km/h (0 Bft)
07.12.2015 22:55 -2,3 C -2,6 C 88 % 1032,7 hPa 0,0 mm 0,0 km/h (0 Bft) O-SO 112 -4,0 C 0,0 km/h (0 Bft)
07.12.2015 23:00 -2,3 C -2,6 C 88 % 1032,7 hPa 0,0 mm 0,0 km/h (0 Bft) SO 135 -4,0 C 0,0 km/h (0 Bft)
07.12.2015 23:05 -2,1 C -2,4 C 88 % 1032,7 hPa 0,0 mm 0,3 km/h (0 Bft) S-SW 202 -3,8 C 0,0 km/h (0 Bft)
07.12.2015 23:10 -2,3 C -2,5 C 88 % 1032,7 hPa 0,0 mm 0,3 km/h (0 Bft) S 180 -4,0 C 0,0 km/h (0 Bft)
07.12.2015 23:15 -1,5 C -1,6 C 84 % 1032,7 hPa 0,0 mm 0,5 km/h (0 Bft) W-SW 247 -3,8 C 3,4 km/h (1 Bft)
07.12.2015 23:20 -1,5 C -1,6 C 89 % 1032,7 hPa 0,0 mm 0,5 km/h (0 Bft) S 180 -3,1 C 0,0 km/h (0 Bft)
07.12.2015 23:25 -1,9 C -1,9 C 89 % 1032,7 hPa 0,0 mm 0,5 km/h (0 Bft) SW 225 -3,5 C 2,8 km/h (1 Bft)
07.12.2015 23:30 -1,8 C -1,8 C 84 % 1032,7 hPa 0,0 mm 0,8 km/h (0 Bft) S-SO 157 -4,1 C 0,0 km/h (0 Bft)
07.12.2015 23:35 -1,9 C -1,9 C 89 % 1032,5 hPa 0,0 mm 0,8 km/h (0 Bft) S-SO 157 -3,5 C 0,0 km/h (0 Bft)
07.12.2015 23:40 -1,9 C -2,0 C 89 % 1032,5 hPa 0,0 mm 0,0 km/h (0 Bft) W-SW 247 -3,5 C 0,0 km/h (0 Bft)
07.12.2015 23:45 -2,0 C -2,1 C 89 % 1032,5 hPa 0,0 mm 0,0 km/h (0 Bft) S 180 -3,6 C 0,0 km/h (0 Bft)
07.12.2015 23:50 -2,0 C -2,0 C 89 % 1032,5 hPa 0,0 mm 0,5 km/h (0 Bft) W 270 -3,6 C 0,0 km/h (0 Bft)
07.12.2015 23:55 -2,2 C -2,2 C 89 % 1032,8 hPa 0,0 mm 0,5 km/h (0 Bft) O-NO 67 -3,8 C 0,0 km/h (0 Bft)
_ Min-Zeit 23:10 23:00 14:10 21:10 - 23:45 - - 23:30 23:55
Minimum _ -2,3 C -2,6 C 63 % 1031,9 hPa - 0,0 km/h (0 Bft) - - -4,1 C 0,0 km/h (0 Bft)
_ Max-Zeit 13:55 14:05 10:20 11:10 23:55 14:05 - - 11:25 22:00
Maximum _ 9,3 C 15,2 C 92 % 1034,5 hPa 0,0 mm 2,1 km/h
O-SO (1 Bft)
- - 3,6 C 9,1 km/h
O-NO (2 Bft)
Durchschnitt _ 1,4 C 1,5 C 83 % 1033,2 hPa #0,0 mm 0,1 km/h (0 Bft) O-NO - -1,4 C 0,2 km/h (0 Bft)